Time,TemperatureF,DewpointF,PressureIn,WindDirection,WindDirectionDegrees,WindSpeedMPH,WindSpeedGustMPH,Humidity,HourlyPrecipIn,Conditions,Clouds,dailyrainin,SoftwareType,DateUTC
2013-01-13 00:03:00,38.0,38.0,30.12,ESE,112,2.0,5.0,100,0.00,,,0.00,,2013-01-13 05:03:00,
2013-01-13 00:12:00,38.0,38.0,30.12,ESE,112,2.0,5.0,100,0.00,,,0.00,,2013-01-13 05:12:00,
2013-01-13 00:23:00,38.0,38.0,30.13,SE,135,1.0,2.0,100,0.00,,,0.00,,2013-01-13 05:23:00,
2013-01-13 00:32:00,39.0,39.0,30.13,ENE,68,0.0,1.0,100,0.00,,,0.00,,2013-01-13 05:32:00,
2013-01-13 00:42:00,39.0,39.0,30.13,ENE,68,0.0,1.0,100,0.00,,,0.00,,2013-01-13 05:42:00,
2013-01-13 00:53:00,39.0,39.0,30.13,East,90,3.0,5.0,100,0.00,,,0.00,,2013-01-13 05:53:00,
2013-01-13 01:03:00,39.0,39.0,30.11,East,90,2.0,5.0,100,0.00,,,0.00,,2013-01-13 06:03:00,
2013-01-13 01:12:00,39.0,39.0,30.11,East,90,2.0,5.0,100,0.00,,,0.00,,2013-01-13 06:12:00,
2013-01-13 01:22:00,39.0,39.0,30.12,East,90,0.0,1.0,100,0.00,,,0.00,,2013-01-13 06:22:00,
2013-01-13 01:32:00,39.0,39.0,30.12,SSW,202,1.0,2.0,100,0.00,,,0.00,,2013-01-13 06:32:00,
2013-01-13 01:42:00,39.0,39.0,30.12,SSW,202,1.0,2.0,100,0.00,,,0.00,,2013-01-13 06:42:00,
2013-01-13 01:52:00,39.0,39.0,30.12,East,90,2.0,3.0,100,0.00,,,0.00,,2013-01-13 06:52:00,
2013-01-13 02:02:00,39.0,39.0,30.13,SSE,158,1.0,1.0,100,0.00,,,0.00,,2013-01-13 07:02:00,
2013-01-13 02:12:00,39.0,39.0,30.13,SSE,158,1.0,1.0,100,0.00,,,0.00,,2013-01-13 07:12:00,
2013-01-13 02:22:00,39.0,39.0,30.11,SE,135,0.0,1.0,100,0.00,,,0.00,,2013-01-13 07:22:00,
2013-01-13 02:32:00,38.0,38.0,30.11,ESE,112,3.0,4.0,100,0.00,,,0.00,,2013-01-13 07:32:00,
2013-01-13 02:42:00,38.0,38.0,30.11,ESE,112,3.0,4.0,100,0.00,,,0.00,,2013-01-13 07:42:00,
2013-01-13 02:53:00,38.0,38.0,30.12,East,90,1.0,3.0,100,0.00,,,0.00,,2013-01-13 07:53:00,
2013-01-13 03:02:00,38.0,38.0,30.13,ESE,112,1.0,1.0,100,0.00,,,0.00,,2013-01-13 08:02:00,
2013-01-13 03:12:00,38.0,38.0,30.13,ESE,112,1.0,1.0,100,0.00,,,0.00,,2013-01-13 08:12:00,
2013-01-13 03:22:00,38.0,38.0,30.12,ESE,112,1.0,1.0,100,0.00,,,0.00,,2013-01-13 08:22:00,
2013-01-13 03:32:00,38.0,38.0,30.12,ESE,112,1.0,1.0,100,0.00,,,0.00,,2013-01-13 08:32:00,
2013-01-13 03:42:00,38.0,38.0,30.12,ESE,112,1.0,1.0,100,0.00,,,0.00,,2013-01-13 08:42:00,
2013-01-13 03:53:00,38.0,38.0,30.12,WSW,248,0.0,0.0,100,0.00,,,0.00,,2013-01-13 08:53:00,
2013-01-13 04:02:00,37.0,37.0,30.12,SW,225,1.0,1.0,100,0.00,,,0.00,,2013-01-13 09:02:00,
2013-01-13 04:12:00,37.0,37.0,30.13,South,180,0.0,0.0,100,0.00,,,0.00,,2013-01-13 09:12:00,
2013-01-13 04:22:00,37.0,37.0,30.13,South,180,0.0,0.0,100,0.00,,,0.00,,2013-01-13 09:22:00,
2013-01-13 04:32:00,37.0,37.0,30.12,SE,135,0.0,0.0,100,0.00,,,0.00,,2013-01-13 09:32:00,
2013-01-13 04:42:00,37.0,37.0,30.12,SE,135,0.0,0.0,100,0.00,,,0.00,,2013-01-13 09:42:00,
2013-01-13 04:52:00,37.0,37.0,30.12,SSW,202,0.0,0.0,100,0.00,,,0.00,,2013-01-13 09:52:00,
2013-01-13 05:02:00,37.0,37.0,30.12,NW,315,0.0,0.0,100,0.00,,,0.00,,2013-01-13 10:02:00,
2013-01-13 05:12:00,37.0,37.0,30.12,NW,315,0.0,0.0,100,0.00,,,0.00,,2013-01-13 10:12:00,
2013-01-13 05:22:00,37.0,37.0,30.12,South,180,0.0,0.0,100,0.00,,,0.00,,2013-01-13 10:22:00,
2013-01-13 05:32:00,37.0,37.0,30.12,SSW,202,0.0,0.0,100,0.00,,,0.00,,2013-01-13 10:32:00,
2013-01-13 05:42:00,37.0,37.0,30.12,SSW,202,0.0,0.0,100,0.00,,,0.00,,2013-01-13 10:42:00,
2013-01-13 05:53:00,37.0,37.0,30.12,SSE,158,0.0,0.0,100,0.00,,,0.00,,2013-01-13 10:53:00,
2013-01-13 06:02:00,37.0,37.0,30.11,NNW,338,0.0,0.0,100,0.00,,,0.00,,2013-01-13 11:02:00,
2013-01-13 06:12:00,37.0,37.0,30.11,NNW,338,0.0,0.0,100,0.00,,,0.00,,2013-01-13 11:12:00,
2013-01-13 06:22:00,36.0,36.0,30.11,SSE,158,0.0,0.0,100,0.00,,,0.00,,2013-01-13 11:22:00,
2013-01-13 06:32:00,36.0,36.0,30.12,South,180,0.0,0.0,100,0.00,,,0.00,,2013-01-13 11:32:00,
2013-01-13 06:42:00,36.0,36.0,30.12,South,180,0.0,0.0,100,0.00,,,0.00,,2013-01-13 11:42:00,
2013-01-13 06:53:00,36.0,36.0,30.11,SSE,158,0.0,0.0,100,0.00,,,0.00,,2013-01-13 11:53:00,
2013-01-13 07:03:00,36.0,36.0,30.11,SSW,202,0.0,0.0,100,0.00,,,0.00,,2013-01-13 12:03:00,
2013-01-13 07:12:00,36.0,36.0,30.11,SSW,202,0.0,0.0,100,0.00,,,0.00,,2013-01-13 12:12:00,
2013-01-13 07:22:00,36.0,36.0,30.11,SSW,202,1.0,1.0,100,0.00,,,0.00,,2013-01-13 12:22:00,
2013-01-13 07:33:00,36.0,36.0,30.12,SSW,202,0.0,0.0,100,0.00,,,0.00,,2013-01-13 12:33:00,
2013-01-13 07:42:00,36.0,36.0,30.12,SSW,202,0.0,0.0,100,0.00,,,0.00,,2013-01-13 12:42:00,
2013-01-13 07:53:00,36.0,36.0,30.14,South,180,0.0,1.0,100,0.00,,,0.00,,2013-01-13 12:53:00,
2013-01-13 08:03:00,36.0,36.0,30.14,WNW,292,0.0,0.0,100,0.00,,,0.00,,2013-01-13 13:03:00,
2013-01-13 08:12:00,36.0,36.0,30.14,WNW,292,0.0,0.0,100,0.00,,,0.00,,2013-01-13 13:12:00,
2013-01-13 08:22:00,37.0,37.0,30.13,West,270,0.0,0.0,100,0.00,,,0.00,,2013-01-13 13:22:00,
2013-01-13 08:33:00,37.0,37.0,30.13,West,270,0.0,0.0,100,0.00,,,0.00,,2013-01-13 13:33:00,
2013-01-13 08:42:00,37.0,37.0,30.13,West,270,0.0,0.0,100,0.00,,,0.00,,2013-01-13 13:42:00,
2013-01-13 08:53:00,37.0,37.0,30.13,SW,225,0.0,0.0,100,0.00,,,0.00,,2013-01-13 13:53:00,
2013-01-13 09:03:00,38.0,38.0,30.13,SW,225,0.0,0.0,100,0.00,,,0.00,,2013-01-13 14:03:00,
2013-01-13 09:12:00,38.0,38.0,30.13,SW,225,0.0,0.0,100,0.00,,,0.00,,2013-01-13 14:12:00,
2013-01-13 09:22:00,38.0,38.0,30.15,South,180,0.0,0.0,100,0.00,,,0.00,,2013-01-13 14:22:00,
2013-01-13 09:33:00,38.0,38.0,30.15,SSW,202,1.0,1.0,100,0.00,,,0.00,,2013-01-13 14:33:00,
2013-01-13 09:43:00,38.0,38.0,30.15,SSW,202,1.0,1.0,100,0.00,,,0.00,,2013-01-13 14:43:00,
2013-01-13 09:53:00,39.0,39.0,30.16,SSE,158,0.0,0.0,100,0.00,,,0.00,,2013-01-13 14:53:00,
2013-01-13 10:03:00,40.0,40.0,30.16,South,180,0.0,0.0,100,0.00,,,0.00,,2013-01-13 15:03:00,
2013-01-13 10:13:00,40.0,40.0,30.16,South,180,0.0,0.0,100,0.00,,,0.00,,2013-01-13 15:13:00,
2013-01-13 10:23:00,41.0,41.0,30.14,ENE,68,1.0,1.0,100,0.00,,,0.00,,2013-01-13 15:23:00,
2013-01-13 10:33:00,41.0,41.0,30.14,SE,135,0.0,1.0,100,0.00,,,0.00,,2013-01-13 15:33:00,
2013-01-13 10:43:00,41.0,41.0,30.14,SE,135,0.0,1.0,100,0.00,,,0.00,,2013-01-13 15:43:00,
2013-01-13 10:53:00,41.0,41.0,30.15,South,180,0.0,0.0,100,0.00,,,0.00,,2013-01-13 15:53:00,
2013-01-13 11:03:00,41.0,41.0,30.14,SSE,158,0.0,0.0,100,0.00,,,0.00,,2013-01-13 16:03:00,
2013-01-13 11:12:00,41.0,41.0,30.14,SSE,158,0.0,0.0,100,0.00,,,0.00,,2013-01-13 16:12:00,
2013-01-13 11:23:00,42.0,42.0,30.14,SSE,158,0.0,1.0,100,0.00,,,0.00,,2013-01-13 16:23:00,
2013-01-13 11:33:00,42.0,42.0,30.13,ENE,68,1.0,1.0,100,0.00,,,0.00,,2013-01-13 16:33:00,
2013-01-13 11:43:00,42.0,42.0,30.13,ENE,68,1.0,1.0,100,0.00,,,0.00,,2013-01-13 16:43:00,
2013-01-13 11:53:00,42.0,42.0,30.13,ESE,112,1.0,3.0,100,0.00,,,0.00,,2013-01-13 16:53:00,
2013-01-13 12:03:00,42.0,42.0,30.12,ENE,68,1.0,1.0,99,0.00,,,0.00,,2013-01-13 17:03:00,
2013-01-13 12:12:00,42.0,42.0,30.12,ENE,68,1.0,1.0,99,0.00,,,0.00,,2013-01-13 17:12:00,
2013-01-13 12:22:00,42.0,42.0,30.11,ENE,68,1.0,1.0,100,0.00,,,0.00,,2013-01-13 17:22:00,
2013-01-13 12:33:00,43.0,43.0,30.10,ENE,68,1.0,2.0,100,0.00,,,0.00,,2013-01-13 17:33:00,
2013-01-13 12:42:00,43.0,43.0,30.10,ENE,68,1.0,2.0,100,0.00,,,0.00,,2013-01-13 17:42:00,
2013-01-13 12:53:00,45.0,45.0,30.09,East,90,1.0,3.0,99,0.00,,,0.00,,2013-01-13 17:53:00,
2013-01-13 13:03:00,45.0,44.0,30.09,ESE,112,0.0,1.0,98,0.00,,,0.00,,2013-01-13 18:03:00,
2013-01-13 13:12:00,45.0,44.0,30.09,ESE,112,0.0,1.0,98,0.00,,,0.00,,2013-01-13 18:12:00,
2013-01-13 13:23:00,44.0,43.0,30.09,East,90,1.0,2.0,98,0.00,,,0.00,,2013-01-13 18:23:00,
2013-01-13 13:33:00,43.0,43.0,30.08,NE,45,1.0,3.0,99,0.00,,,0.00,,2013-01-13 18:33:00,
2013-01-13 13:43:00,43.0,43.0,30.08,NE,45,1.0,3.0,99,0.00,,,0.00,,2013-01-13 18:43:00,
2013-01-13 13:53:00,43.0,43.0,30.07,East,90,3.0,5.0,100,0.00,,,0.00,,2013-01-13 18:53:00,
2013-01-13 14:03:00,43.0,43.0,30.07,East,90,5.0,8.0,100,0.00,,,0.00,,2013-01-13 19:03:00,
2013-01-13 14:12:00,43.0,43.0,30.07,East,90,5.0,8.0,100,0.00,,,0.00,,2013-01-13 19:12:00,
2013-01-13 14:23:00,43.0,43.0,30.08,NW,315,1.0,2.0,100,0.00,,,0.00,,2013-01-13 19:23:00,
2013-01-13 14:33:00,43.0,43.0,30.09,ESE,112,5.0,6.0,100,0.00,,,0.00,,2013-01-13 19:33:00,
2013-01-13 14:43:00,43.0,43.0,30.09,ESE,112,5.0,6.0,100,0.00,,,0.00,,2013-01-13 19:43:00,
2013-01-13 14:53:00,43.0,43.0,30.07,East,90,2.0,4.0,100,0.00,,,0.00,,2013-01-13 19:53:00,
2013-01-13 15:03:00,42.0,42.0,30.07,East,90,3.0,4.0,99,0.00,,,0.00,,2013-01-13 20:03:00,
2013-01-13 15:12:00,42.0,42.0,30.07,East,90,3.0,4.0,99,0.00,,,0.00,,2013-01-13 20:12:00,
2013-01-13 15:22:00,41.0,41.0,30.08,SSE,158,1.0,2.0,99,0.00,,,0.00,,2013-01-13 20:22:00,
2013-01-13 15:33:00,41.0,41.0,30.07,ENE,68,2.0,4.0,100,0.00,,,0.00,,2013-01-13 20:33:00,
2013-01-13 15:43:00,41.0,41.0,30.07,ENE,68,2.0,4.0,100,0.00,,,0.00,,2013-01-13 20:43:00,
2013-01-13 15:53:00,40.0,40.0,30.06,East,90,2.0,3.0,100,0.00,,,0.00,,2013-01-13 20:53:00,
2013-01-13 16:03:00,40.0,40.0,30.03,East,90,3.0,3.0,100,0.00,,,0.00,,2013-01-13 21:03:00,
2013-01-13 16:12:00,40.0,40.0,30.03,East,90,3.0,3.0,100,0.00,,,0.00,,2013-01-13 21:12:00,
2013-01-13 16:23:00,40.0,40.0,30.05,ESE,112,1.0,3.0,100,0.00,,,0.00,,2013-01-13 21:23:00,
2013-01-13 16:33:00,40.0,40.0,30.03,NE,45,3.0,5.0,100,0.00,,,0.00,,2013-01-13 21:33:00,
2013-01-13 16:43:00,40.0,40.0,30.03,NE,45,3.0,5.0,100,0.00,,,0.00,,2013-01-13 21:43:00,
2013-01-13 16:53:00,39.0,39.0,30.05,East,90,0.0,1.0,100,0.00,,,0.00,,2013-01-13 21:53:00,
2013-01-13 17:02:00,39.0,39.0,30.03,SE,135,2.0,3.0,100,0.00,,,0.00,,2013-01-13 22:02:00,
2013-01-13 17:12:00,39.0,39.0,30.03,SE,135,2.0,3.0,100,0.00,,,0.00,,2013-01-13 22:12:00,
2013-01-13 17:22:00,39.0,39.0,30.03,South,180,1.0,1.0,100,0.00,,,0.00,,2013-01-13 22:22:00,
2013-01-13 17:33:00,39.0,39.0,30.03,ESE,112,1.0,3.0,100,0.00,,,0.00,,2013-01-13 22:33:00,
2013-01-13 17:43:00,39.0,39.0,30.03,ESE,112,1.0,3.0,100,0.00,,,0.00,,2013-01-13 22:43:00,
2013-01-13 17:53:00,39.0,39.0,30.02,ESE,112,1.0,3.0,100,0.00,,,0.00,,2013-01-13 22:53:00,
2013-01-13 18:02:00,39.0,39.0,30.02,SSE,158,1.0,1.0,100,0.00,,,0.00,,2013-01-13 23:02:00,
2013-01-13 18:12:00,39.0,39.0,30.02,SSE,158,1.0,1.0,100,0.00,,,0.00,,2013-01-13 23:12:00,
2013-01-13 18:23:00,39.0,39.0,30.02,ENE,68,3.0,5.0,100,0.00,,,0.00,,2013-01-13 23:23:00,
2013-01-13 18:33:00,39.0,39.0,30.02,East,90,2.0,4.0,100,0.00,,,0.00,,2013-01-13 23:33:00,
2013-01-13 18:43:00,39.0,39.0,30.02,East,90,2.0,4.0,100,0.00,,,0.00,,2013-01-13 23:43:00,
2013-01-13 18:53:00,39.0,39.0,30.01,SSE,158,1.0,2.0,100,0.00,,,0.00,,2013-01-13 23:53:00,
2013-01-13 19:03:00,40.0,40.0,30.01,NNE,22,3.0,4.0,100,0.00,,,0.00,,2013-01-14 00:03:00,
2013-01-13 19:12:00,40.0,40.0,30.01,NNE,22,3.0,4.0,100,0.00,,,0.00,,2013-01-14 00:12:00,
2013-01-13 19:22:00,41.0,41.0,30.01,East,90,1.0,2.0,100,0.00,,,0.00,,2013-01-14 00:22:00,
2013-01-13 19:33:00,42.0,42.0,30.01,SW,225,4.0,5.0,100,0.00,,,0.00,,2013-01-14 00:33:00,
2013-01-13 19:43:00,42.0,42.0,30.01,SW,225,4.0,5.0,100,0.00,,,0.00,,2013-01-14 00:43:00,
2013-01-13 19:53:00,42.0,42.0,30.01,SSE,158,2.0,3.0,100,0.00,,,0.00,,2013-01-14 00:53:00,
2013-01-13 20:03:00,43.0,43.0,30.00,East,90,3.0,5.0,100,0.00,,,0.00,,2013-01-14 01:03:00,
2013-01-13 20:12:00,43.0,43.0,30.00,East,90,3.0,5.0,100,0.00,,,0.00,,2013-01-14 01:12:00,
2013-01-13 20:22:00,44.0,44.0,30.00,East,90,5.0,8.0,100,0.00,,,0.00,,2013-01-14 01:22:00,
2013-01-13 20:33:00,44.0,44.0,29.98,SSE,158,5.0,8.0,100,0.00,,,0.00,,2013-01-14 01:33:00,
2013-01-13 20:42:00,44.0,44.0,29.98,SSE,158,5.0,8.0,100,0.00,,,0.00,,2013-01-14 01:42:00,
2013-01-13 20:53:00,45.0,45.0,30.00,ENE,68,3.0,5.0,100,0.00,,,0.00,,2013-01-14 01:53:00,
2013-01-13 21:03:00,45.0,45.0,30.00,NE,45,2.0,4.0,100,0.00,,,0.00,,2013-01-14 02:03:00,
2013-01-13 21:12:00,45.0,45.0,30.00,East,90,2.0,4.0,100,0.00,,,0.00,,2013-01-14 02:12:00,
2013-01-13 21:22:00,45.0,45.0,30.00,East,90,2.0,4.0,100,0.00,,,0.00,,2013-01-14 02:22:00,
2013-01-13 21:33:00,45.0,45.0,29.98,East,90,3.0,6.0,100,0.00,,,0.00,,2013-01-14 02:33:00,
2013-01-13 21:42:00,45.0,45.0,29.98,East,90,3.0,6.0,100,0.00,,,0.00,,2013-01-14 02:42:00,
2013-01-13 21:53:00,45.0,45.0,29.98,ENE,68,5.0,8.0,100,0.00,,,0.00,,2013-01-14 02:53:00,
2013-01-13 22:03:00,45.0,45.0,29.98,ENE,68,4.0,5.0,100,0.00,,,0.00,,2013-01-14 03:03:00,
2013-01-13 22:12:00,45.0,45.0,29.98,ENE,68,4.0,5.0,100,0.00,,,0.00,,2013-01-14 03:12:00,
2013-01-13 22:22:00,45.0,45.0,29.98,ENE,68,5.0,7.0,100,0.00,,,0.00,,2013-01-14 03:22:00,
2013-01-13 22:33:00,45.0,45.0,29.98,ESE,112,3.0,5.0,100,0.00,,,0.00,,2013-01-14 03:33:00,
2013-01-13 22:42:00,45.0,45.0,29.98,ESE,112,3.0,5.0,100,0.00,,,0.00,,2013-01-14 03:42:00,
2013-01-13 22:53:00,44.0,44.0,29.96,ESE,112,3.0,6.0,100,0.00,,,0.00,,2013-01-14 03:53:00,
2013-01-13 23:02:00,44.0,44.0,29.96,SE,135,6.0,11.0,100,0.00,,,0.00,,2013-01-14 04:02:00,
2013-01-13 23:12:00,44.0,44.0,29.96,SE,135,6.0,11.0,100,0.00,,,0.00,,2013-01-14 04:12:00,
2013-01-13 23:22:00,45.0,45.0,29.96,SSE,158,3.0,6.0,100,0.00,,,0.00,,2013-01-14 04:22:00,
2013-01-13 23:32:00,44.0,44.0,29.97,ENE,68,2.0,4.0,100,0.00,,,0.00,,2013-01-14 04:32:00,
2013-01-13 23:42:00,44.0,44.0,29.97,ENE,68,2.0,4.0,100,0.00,,,0.00,,2013-01-14 04:42:00,
2013-01-13 23:53:00,44.0,44.0,29.96,SE,135,2.0,3.0,100,0.00,,,0.00,,2013-01-14 04:53:00,